Burnsville, North Carolina, United States (28714)
Lat: 35.92N, Lon: 82.3W
Wx Zone: NCZ049
Local Info
Past Weather Observations for Wednesday, July 1, 2015

NOTE: This archive is for the closest National Weather Service station to Burnsville. Information may differ from the station used for current weather conditions.

Click here for Long-term Archive

Time Weather Temperature Dewpoint Humidity Pressure Winds Precip Visibility
23:54
Overcast
68°F / 20°C 63°F / 17°C 83% 30.06 in
(1018 mb)
Calm - 10SM
22:54
Partly Cloudy
68°F / 20°C 63°F / 17°C 83% 30.06 in
(1018 mb)
Calm 0.00 in
(0.00 mm)
10SM
21:54
Mostly Cloudy
68°F / 20°C 64°F / 18°C 88% 30.06 in
(1018 mb)
S 6.9 mph
(S 11 kph)
0.00 in
(0.00 mm)
9SM
20:54
Overcast
70°F / 21°C 64°F / 18°C 83% 30.06 in
(1018 mb)
S 5.8 mph
(S 9 kph)
- 9SM
19:54
Mostly Cloudy
70°F / 21°C 64°F / 18°C 83% 30.06 in
(1018 mb)
NW 3.5 mph
(NW 6 kph)
- 7SM
18:54
Mostly Cloudy
Hazy
72°F / 22°C 64°F / 18°C 78% 30.06 in
(1018 mb)
NW 5.8 mph
(NW 9 kph)
0.00 in
(0.00 mm)
6SM
17:54
Overcast
73°F / 23°C 64°F / 18°C 74% 30.06 in
(1018 mb)
N 8.1 mph
(N 13 kph)
0.00 in
(0.00 mm)
7SM
17:00
Mostly Cloudy
Light Rain
75°F / 24°C 63°F / 17°C 65% 30.06 in
(1018 mb)
NW 5.8 mph
(NW 9 kph)
0.00 in
(0.00 mm)
7SM
16:54
Mostly Cloudy
Hazy
75°F / 24°C 63°F / 17°C 65% 30.04 in
(1017 mb)
NW 8.1 mph
(NW 13 kph)
- 5SM
15:54
Clear
Hazy
79°F / 26°C 63°F / 17°C 58% 30.04 in
(1017 mb)
NW 5.8 mph
(NW 9 kph)
- 6SM
14:54
Partly Cloudy
Hazy
79°F / 26°C 64°F / 18°C 61% 30.04 in
(1017 mb)
NW 5.8 mph
(NW 9 kph)
- 8SM
13:54
Partly Cloudy
Hazy
79°F / 26°C 63°F / 17°C 58% 30.06 in
(1018 mb)
SW 4.6 mph
(SW 7 kph)
- 8SM
12:54
Clear
Hazy
79°F / 26°C 61°F / 16°C 54% 30.06 in
(1018 mb)
S 4.6 mph
(S 7 kph)
- 7SM
11:54
Mostly Cloudy
Hazy
77°F / 25°C 63°F / 17°C 61% 30.06 in
(1018 mb)
S 6.9 mph
(S 11 kph)
- 9SM
10:54
Mostly Cloudy
Hazy
77°F / 25°C 61°F / 16°C 57% 30.06 in
(1018 mb)
NNW 4.6 mph
(NNW 7 kph)
- 6SM
09:54
Clear
75°F / 24°C 63°F / 17°C 65% 30.06 in
(1018 mb)
N 6.9 mph
(N 11 kph)
- 10SM
08:54
Clear
72°F / 22°C 63°F / 17°C 73% 30.06 in
(1018 mb)
Variable 3.5 mph
(Variable 6 kph)
- 10SM
07:54
Partly Cloudy
66°F / 19°C 63°F / 17°C 88% 30.06 in
(1018 mb)
Calm - 8SM
06:54
Partly Cloudy
64°F / 18°C 61°F / 16°C 88% 30.06 in
(1018 mb)
W 3.5 mph
(W 6 kph)
- 8SM
06:01
Partly Cloudy
Fog And Mist
63°F / 17°C 59°F / 15°C 88% 30.06 in
(1018 mb)
Calm - 6SM
05:54
Mostly Cloudy
Fog And Mist
61°F / 16°C 59°F / 15°C 94% 30.06 in
(1018 mb)
Calm - 6SM
04:54
Partly Cloudy
61°F / 16°C 59°F / 15°C 94% 30.04 in
(1017 mb)
S 4.6 mph
(S 7 kph)
- 8SM
03:54
Clear
63°F / 17°C 61°F / 16°C 94% 30.04 in
(1017 mb)
NW 5.8 mph
(NW 9 kph)
- 10SM
02:54
Clear
63°F / 17°C 61°F / 16°C 94% 30.04 in
(1017 mb)
NNW 3.5 mph
(NNW 6 kph)
- 10SM
01:54
Clear
64°F / 18°C 61°F / 16°C 88% 30.04 in
(1017 mb)
Calm - 10SM
00:54
Partly Cloudy
64°F / 18°C 61°F / 16°C 88% 30.04 in
(1017 mb)
Calm - 10SM
Time Weather Temperature Dewpoint Humidity Pressure Winds Precip Visibility


Weather for websites

WeatherForYou.com, LLC is not responsible for any damages or problems caused by this service. Current weather conditions are obtained from the closest station including government and personal stations which may have varying degrees of accuracy. Weather forecasts are derived from the NOAA NDFD. Like all things, this site belongs to Jesus Christ... He just trusts us to maintain it. If you have any questions or comments email webmaster@weatherforyou.com

Copyright © 2015, WeatherForYou.com LLC. All rights reserved.